Location: Unspecified
(41.1637°N, 24.2901°E)
Time: 15:40:13
(UTC+01:00)

ISS - Pass Details

Date: 29 November 2020
Orbit: 418 x 421 km, 51.6° (Epoch: 29 November)

Event Time Altitude Azimuth Distance (km) Brightness Sun altitude
Rises 17:26:32 0° 301° (WNW) 2,364 0.8 -16.8°
Reaches altitude 10° 17:29:26 10° 328° (NNW) 1,500 -0.7 -17.3°
Enters shadow 17:31:16 14° 1° (N) 1,290 -1.4 -17.7°
